TimeEDT,TemperatureF,Dew PointF,Humidity,Sea Level PressureIn,VisibilityMPH,Wind Direction,Wind SpeedMPH,Gust SpeedMPH,PrecipitationIn,Events,Conditions,WindDirDegrees,DateUTC
12:53 AM,57.9,53.1,84,30.04,10.0,Calm,Calm,-,N/A,,Clear,0,2013-09-05 04:53:00
1:53 AM,63.0,54.0,72,30.03,10.0,West,3.5,-,N/A,,Clear,270,2013-09-05 05:53:00
2:53 AM,61.0,53.1,75,30.02,10.0,Calm,Calm,-,N/A,,Clear,0,2013-09-05 06:53:00
3:53 AM,59.0,53.1,81,30.01,10.0,Calm,Calm,-,N/A,,Clear,0,2013-09-05 07:53:00
4:53 AM,57.9,53.1,84,30.02,10.0,Calm,Calm,-,N/A,,Clear,0,2013-09-05 08:53:00
5:53 AM,57.9,53.1,84,30.01,10.0,Calm,Calm,-,N/A,,Clear,0,2013-09-05 09:53:00
6:53 AM,60.1,55.0,83,30.02,10.0,ESE,4.6,-,N/A,,Clear,120,2013-09-05 10:53:00
7:53 AM,66.0,57.0,73,30.04,10.0,Calm,Calm,-,N/A,,Clear,0,2013-09-05 11:53:00
8:53 AM,71.1,57.9,63,30.04,10.0,West,5.8,-,N/A,,Clear,260,2013-09-05 12:53:00
9:53 AM,73.9,59.0,59,30.06,10.0,WNW,5.8,-,N/A,,Clear,290,2013-09-05 13:53:00
10:53 AM,73.9,59.0,59,30.05,10.0,WNW,8.1,-,N/A,,Partly Cloudy,290,2013-09-05 14:53:00
11:53 AM,75.0,59.0,57,30.05,10.0,West,6.9,-,N/A,,Mostly Cloudy,280,2013-09-05 15:53:00
12:53 PM,75.9,60.1,58,30.05,10.0,WNW,9.2,-,N/A,,Mostly Cloudy,290,2013-09-05 16:53:00
1:53 PM,75.9,59.0,56,30.04,10.0,West,5.8,-,N/A,,Mostly Cloudy,280,2013-09-05 17:53:00
2:53 PM,80.1,55.9,43,30.03,10.0,NNW,9.2,-,N/A,,Mostly Cloudy,330,2013-09-05 18:53:00
3:53 PM,77.0,52.0,42,30.02,10.0,NW,6.9,-,N/A,,Scattered Clouds,310,2013-09-05 19:53:00
4:53 PM,81.0,48.9,33,30.03,10.0,NNW,8.1,-,N/A,,Clear,330,2013-09-05 20:53:00
5:53 PM,79.0,45.0,30,30.04,10.0,North,8.1,-,N/A,,Clear,350,2013-09-05 21:53:00
6:53 PM,75.0,46.0,36,30.06,10.0,North,5.8,-,N/A,,Clear,350,2013-09-05 22:53:00
7:53 PM,61.0,53.1,75,30.08,10.0,Calm,Calm,-,N/A,,Clear,0,2013-09-05 23:53:00
8:53 PM,57.9,52.0,81,30.11,10.0,Calm,Calm,-,N/A,,Clear,0,2013-09-06 00:53:00
9:53 PM,55.9,52.0,87,30.13,10.0,Calm,Calm,-,N/A,,Clear,0,2013-09-06 01:53:00
10:53 PM,54.0,50.0,86,30.15,10.0,Calm,Calm,-,N/A,,Clear,0,2013-09-06 02:53:00
11:53 PM,55.9,50.0,80,30.17,10.0,North,3.5,-,N/A,,Mostly Cloudy,10,2013-09-06 03:53:00